Tracking 33744 objects as of 13-Apr-2026
HD Live streaming from Space Station
objects crossing your sky now

STARLINK-36810

Track STARLINK-36810 now!
10-day predictions
STARLINK-36810 is classified as:


NORAD ID: 67898
Int'l Code: 2026-035V
Perigee: 417.5 km
Apogee: 420.0 km
Inclination: 97.3 °
Period: 92.8 minutes
Semi major axis: 6789 km
RCS: Unknown
Launch date: February 21, 2026
Source: United States (US)
Launch site: AIR FORCE WESTERN TEST RANGE (AFWTR)
Your satellite tracking list
Your tracking list is empty




NASA's NSSDC Master Catalog

Two Line Element Set (TLE):
1 67898U 26035V   26102.91668981 -.00322309  00000-0 -56331-2 0  9994
2 67898  97.2850  36.9671 0001799  84.0679  74.7777 15.51758258  6386
Source of the keplerian elements: AFSPC